STARLINK-2518 (48333 NORAD) Tracking and Keplerian Element Data

This shows tracking and keplerian element data for the satellite.

Feedback or suggestion? Click here.




ElementValue
Catalog48333
NameSTARLINK-2518
Epoch Orbit1481
Epoch Day214.63400589
Epoch Year2021
RAAN83.6628
Inclination53.0599
Eccentricity0.0001998
Argument of Perigee85.869
Mean Anonmoly274.2527
Mean Motion15.0639529
Decay Rate8.33E-06
L11 48333U 21036BK 21214.63400589 .00000833 00000-0 74863-4 0 9994
L22 48333 53.0599 83.6628 0001998 85.8690 274.2527 15.06395290 14813

Live tracking and technical data element details for STARLINK-2518 (NORAD 48333). STARLINK-2518 can be tracked NOW for your location showing map with azimuth and elevation plus other details from your city location.

Track the satellite on the map from your city or location and see movement details for azimuth, elevation, latitude, longitude, range, height, and movement on the map or in text.







IsCatalogInMostPopularTable: catalog: 48333, numindb: 33
Update: records affected: 1



GetName: 48333 STARLINK-2518

Hit Count: updated at: Tue, 03 Aug 2021 21:06:49 GMT